Regional Weather Roundup
Issued by NWS State College, PA

Home | Current Version | Previous Version | Graphics & Text | Print | Product List | Glossary On
Versions: 1 2 3 4 5 6 7 8 9 10 11 12 13 14 15 16 17 18 19 20 21 22 23 24 25 26 27 28 29 30 31 32 33 34 35 36 37 38 39 40 41 42 43 44 45 46
000
ASUS41 KCTP 111103
RWRCTP

REGIONAL WEATHER ROUNDUP
NATIONAL WEATHER SERVICE STATE COLLEGE PA
600 AM EST MON DEC 11 2017

Note: "fair" indicates few or no clouds below 12,000 feet with no
significant weather and/or obstructions to visibility.

* = STATION THAT DOES NOT REPORT PRECIPITATION /E.G. RAIN...SNOW...ETC/
    THUNDER OR FOG.

PAZ002>004-007>009-013>016-020>023-029>032-111200-
WESTERN PENNSYLVANIA

CITY           SKY/WX    TMP DP  RH WIND       PRES   REMARKS
ERIE           CLOUDY    30  22  72 NW8       29.99R
MEADVILLE      CLOUDY    26  23  88 W3        29.97R
FRANKLIN*      FLURRIES  26  21  81 W6        29.97R
NEW CASTLE     CLOUDY    30  23  75 W8        30.01S
BEAVER COUNTY  NOT AVBL
BUTLER*        CLOUDY    29  21  72 W6        30.00R
PITTSBURGH INT CLOUDY    33  21  61 W6        30.01R
PITTSBURGH     CLOUDY    30  18  60 W7        30.01R
INDIANA*       CLOUDY    30  21  69 W7        30.03R
LATROBE        CLOUDY    32  19  59 W9        30.03R
WASHINGTON CO* CLOUDY    31  22  69 W12       30.05S
$$

PAZ004>006-010>012-017>019-024>028-033>037-041-042-045-046-049>053-111200-
CENTRAL PENNSYLVANIA

CITY           SKY/WX    TMP DP  RH WIND       PRES   REMARKS
BRADFORD       LGT SNOW  24  22  91 W5        29.89R FOG
DUBOIS         CLOUDY    25  20  81 W10       29.94R HAZE    WCI  15
CLEARFIELD     FLURRIES  29  20  69 W8        29.95R
JOHNSTOWN      CLOUDY    27  19  72 W12G23    29.92R
ALTOONA        CLOUDY    32  20  61 W8        29.97R
STATE COLLEGE  CLOUDY    28  21  74 SW5       29.97R
WILLIAMSPORT   CLOUDY    32  21  64 NW5       29.98R
SELINSGROVE    CLOUDY    33  21  61 SW5       30.01R
FT INDIANTOWN  CLOUDY    31  24  74 SW3       30.00R
CAPITAL CITY   CLOUDY    34  20  56 W5        30.02R
HARRISBURG     CLOUDY    34  24  67 CALM      30.02R
YORK           CLOUDY    35  23  61 W6        30.01R
$$

PAZ038>040-043-044-047-048-054-055-060>062-067>071-111200-
EASTERN PENNSYLVANIA

CITY           SKY/WX    TMP DP  RH WIND       PRES   REMARKS
SCRANTON       CLOUDY    30  21  69 SW5       29.95R
MOUNT POCONO   CLOUDY    23  19  85 W5        29.89R
ALLENTOWN      CLOUDY    31  22  69 SW3       30.00R
QUAKERTOWN*    CLOUDY    32  23  69 W3        30.01R
READING        CLOUDY    33  24  69 SW6       30.01R
LANCASTER      CLOUDY    33  24  69 W3        30.02R
COATESVILLE    CLOUDY    34  23  64 CALM      30.02R
POTTSTOWN      CLOUDY    34  21  59 SW7       30.03R
BLUE BELL      CLOUDY    32  27  80 SW3       30.04R
DOYLESTOWN     CLOUDY    31  23  72 SW3       30.00R
WILLOW GROVE   NOT AVBL
NORTH PHILA    CLOUDY    35  29  78 S6        30.04R
PHILADELPHIA   CLOUDY    34  29  82 SW6       30.04R
$$




USA.gov is the U.S. government's official web portal to all federal, state and local government web resources and services.